Date String (YYYY-MM-DD hh:mm:ss) UTC,Instrument flags,absolute air pressure of the measurement (hPa),sample flow rate (lpm),inlet stack bypass flow (lpm),air temperature of the measurement (°C),ambient temperature measured by the external sensor (°C),aerosol sample conditioner tube jacket temperature (°C),OPC LED temperature (°C),internal box temperature (°C),relative humidity of the measurement (%),span deviation,mass concentration of particles derived from Lorenz-Mie calculation of OPC scattering (μg/m³),mass concentration of particles derived from Lorenz-Mie calculation of OPC scattering (μg/m³),mass concentration of particles derived from Lorenz-Mie calculation of OPC scattering (μg/m³)
DateTimeUTC,F1_M11,P_M11,Q1_M11,Q2_M11,T1_M11,T2_M11,T3_M11,T4_M11,T5_M11,U1_M11,ZSPAN_M11,X0_M11,X2_M11,X1_M11
2024-05-20 09:00:00,SystemResetWarning,0827.7,5.00,000.00,025.5,024.9,000.0,033.6,027.3,024.7,0000.0,0016.35,0004.32,0002.81
2024-05-20 09:01:00,SystemResetWarning,0827.7,5.00,000.00,025.5,024.9,000.0,033.7,027.3,024.7,0000.0,0016.33,0004.34,0002.79
2024-05-20 09:02:00,SystemResetWarning,0827.7,5.00,000.00,025.5,024.9,000.0,033.7,027.4,024.7,0000.0,0016.17,0004.37,0002.81
2024-05-20 09:03:00,SystemResetWarning,0827.8,5.00,000.00,025.6,025.0,000.0,033.7,027.4,024.7,0000.0,0015.93,0004.41,0002.83
2024-05-20 09:04:00,SystemResetWarning,0827.8,5.01,000.00,025.6,025.0,000.0,033.7,027.4,024.7,0000.0,0015.55,0004.42,0002.83
2024-05-20 09:05:00,SystemResetWarning,0827.8,5.00,000.00,025.6,025.0,000.0,033.7,027.4,024.7,0000.0,0015.67,0004.46,0002.85
2024-05-20 09:06:00,SystemResetWarning,0827.8,5.00,000.00,025.6,025.0,000.0,033.7,027.4,024.7,0000.0,0015.58,0004.45,0002.85
2024-05-20 09:07:00,SystemResetWarning,0827.8,5.00,000.00,025.6,025.0,000.0,033.7,027.4,024.6,0000.0,0015.70,0004.43,0002.86
2024-05-20 09:08:00,SystemResetWarning,0827.8,4.99,000.00,025.6,025.0,000.0,033.8,027.5,024.5,0000.0,0014.87,0004.45,0002.90
2024-05-20 09:09:00,SystemResetWarning,0827.8,5.00,000.00,025.7,025.1,000.0,033.8,027.5,024.4,0000.0,0014.06,0004.46,0002.91
2024-05-20 09:10:00,SystemResetWarning,0827.9,5.00,000.00,025.7,025.1,000.0,033.8,027.5,024.4,0000.0,0013.81,0004.46,0002.91
2024-05-20 09:11:00,SystemResetWarning,0827.9,5.00,000.00,025.7,025.1,000.0,033.8,027.5,024.4,0000.0,0012.69,0004.41,0002.93
2024-05-20 09:12:00,SystemResetWarning,0827.8,5.00,000.00,025.7,025.1,000.0,033.8,027.5,024.0,0000.0,0012.09,0004.39,0002.95
2024-05-20 09:13:00,SystemResetWarning,0827.9,5.00,000.00,025.7,025.1,000.0,033.8,027.5,024.0,0000.0,0011.55,0004.38,0002.96
2024-05-20 09:14:00,SystemResetWarning,0827.9,5.00,000.00,025.7,025.1,000.0,033.9,027.6,023.8,0000.0,0011.32,0004.32,0002.98
2024-05-20 09:15:00,SystemResetWarning,0828.0,5.00,000.00,025.7,025.1,000.0,033.9,027.5,023.8,0000.0,0011.29,0004.28,0003.00
2024-05-20 09:16:00,SystemResetWarning,0828.0,5.00,000.00,025.7,025.1,000.0,033.9,027.6,023.8,0000.0,0011.24,0004.29,0003.01
2024-05-20 09:17:00,SystemResetWarning,0828.0,5.00,000.00,025.7,025.1,000.0,033.9,027.6,023.7,0000.0,0012.41,0004.28,0003.02
2024-05-20 09:18:00,SystemResetWarning,0828.0,5.00,000.00,025.7,025.1,000.0,033.9,027.6,023.7,0000.0,0012.52,0004.32,0003.03
2024-05-20 09:19:00,SystemResetWarning,0828.0,5.00,000.00,025.8,025.1,000.0,033.9,027.6,023.7,0000.0,0013.66,0004.35,0003.04
2024-05-20 09:20:00,SystemResetWarning,0828.1,5.00,000.00,025.8,025.1,000.0,033.9,027.6,023.8,0000.0,0014.84,0004.40,0003.05
2024-05-20 09:21:00,SystemResetWarning,0828.1,5.01,000.00,025.8,025.1,000.0,034.0,027.6,023.7,0000.0,0015.20,0004.45,0003.07
2024-05-20 09:22:00,SystemResetWarning,0828.1,5.01,000.00,025.8,025.1,000.0,034.0,027.6,023.7,0000.0,0015.68,0004.52,0003.07
2024-05-20 09:23:00,SystemResetWarning,0828.1,5.01,000.00,025.8,025.1,000.0,034.0,027.6,023.7,0000.0,0015.74,0004.55,0003.09
2024-05-20 09:24:00,SystemResetWarning,0828.1,4.99,000.00,025.8,025.1,000.0,034.0,027.6,023.7,0000.0,0015.72,0004.58,0003.09
2024-05-20 09:25:00,SystemResetWarning,0828.1,4.99,000.00,025.8,025.1,000.0,034.0,027.6,023.7,0000.0,0015.30,0004.58,0003.09
2024-05-20 09:26:00,SystemResetWarning,0828.2,4.99,000.00,025.8,025.2,000.0,034.0,027.6,023.7,0000.0,0015.18,0004.61,0003.08
2024-05-20 09:27:00,SystemResetWarning,0828.2,5.01,000.00,025.8,025.2,000.0,034.0,027.6,023.7,0000.0,0015.45,0004.62,0003.06
2024-05-20 09:28:00,SystemResetWarning,0828.2,5.00,000.00,025.8,025.2,000.0,034.0,027.7,023.7,0000.0,0015.06,0004.64,0003.05
2024-05-20 09:29:00,SystemResetWarning,0828.3,5.00,000.00,025.8,025.2,000.0,034.0,027.7,023.7,0000.0,0014.50,0004.61,0003.06
2024-05-20 09:30:00,SystemResetWarning,0828.4,5.00,000.00,025.9,025.2,000.0,034.0,027.7,023.7,0000.0,0013.34,0004.62,0003.05
2024-05-20 09:31:00,SystemResetWarning,0828.3,5.00,000.00,025.9,025.2,000.0,034.1,027.7,023.7,0000.0,0013.13,0004.61,0003.03
2024-05-20 09:32:00,SystemResetWarning,0828.3,5.00,000.00,025.9,025.2,000.0,034.1,027.7,023.7,0000.0,0012.47,0004.52,0003.01
2024-05-20 09:33:00,SystemResetWarning,0828.3,5.00,000.00,025.9,025.2,000.0,034.1,027.7,023.7,0000.0,0012.52,0004.43,0003.00
2024-05-20 09:34:00,SystemResetWarning,0828.4,5.00,000.00,025.9,025.2,000.0,034.1,027.7,023.7,0000.0,0012.81,0004.41,0002.98
2024-05-20 09:35:00,SystemResetWarning,0828.4,5.00,000.00,025.9,025.2,000.0,034.1,027.7,023.7,0000.0,0013.27,0004.46,0002.99
2024-05-20 09:36:00,SystemResetWarning,0828.4,4.99,000.00,025.9,025.2,000.0,034.1,027.7,023.7,0000.0,0013.96,0004.54,0002.99
2024-05-20 09:37:00,SystemResetWarning,0828.4,5.00,000.00,025.9,025.2,000.0,034.1,027.7,023.7,0000.0,0015.25,0004.57,0003.02
2024-05-20 09:38:00,SystemResetWarning,0828.4,5.00,000.00,025.9,025.2,000.0,034.1,027.7,023.7,0000.0,0015.69,0004.55,0003.03
2024-05-20 09:39:00,SystemResetWarning,0828.4,5.00,000.00,025.9,025.2,000.0,034.1,027.7,023.8,0000.0,0015.45,0004.53,0003.04
2024-05-20 09:40:00,SystemResetWarning,0828.4,5.00,000.00,025.9,025.2,000.0,034.1,027.7,023.8,0000.0,0015.46,0004.54,0003.04
2024-05-20 09:41:00,SystemResetWarning,0828.4,5.00,000.00,025.9,025.2,000.0,034.1,027.8,023.7,0000.0,0015.81,0004.51,0003.05
2024-05-20 09:42:00,SystemResetWarning,0828.4,5.01,000.00,025.9,025.3,000.0,034.2,027.8,023.7,0000.0,0015.70,0004.44,0003.05
2024-05-20 09:43:00,SystemResetWarning,0828.4,4.99,000.00,026.0,025.3,000.0,034.2,027.8,023.7,0000.0,0015.55,0004.47,0003.06
2024-05-20 09:44:00,SystemResetWarning,0828.4,5.00,000.00,026.0,025.3,000.0,034.2,027.8,023.7,0000.0,0016.17,0004.54,0003.08
2024-05-20 09:45:00,SystemResetWarning,0828.4,5.01,000.00,026.0,025.3,000.0,034.2,027.8,023.7,0000.0,0016.59,0004.57,0003.10
2024-05-20 09:46:00,SystemResetWarning,0828.4,5.01,000.00,026.0,025.3,000.0,034.2,027.8,023.6,0000.0,0016.58,0004.53,0003.11
2024-05-20 09:47:00,SystemResetWarning,0828.4,4.99,000.00,026.0,025.3,000.0,034.2,027.8,023.5,0000.0,0016.44,0004.46,0003.11
2024-05-20 09:48:00,SystemResetWarning,0828.4,5.00,000.00,026.0,025.3,000.0,034.2,027.8,023.6,0000.0,0015.21,0004.48,0003.11
2024-05-20 09:49:00,SystemResetWarning,0828.4,4.99,000.00,026.0,025.3,000.0,034.2,027.8,023.5,0000.0,0014.58,0004.46,0003.12
2024-05-20 09:50:00,SystemResetWarning,0828.4,5.00,000.00,026.0,025.3,000.0,034.2,027.8,023.5,0000.0,0015.29,0004.44,0003.12
2024-05-20 09:51:00,SystemResetWarning,0828.3,5.01,000.00,026.0,025.3,000.0,034.2,027.8,023.5,0000.0,0015.89,0004.46,0003.12
2024-05-20 09:52:00,SystemResetWarning,0828.3,5.01,000.00,026.0,025.3,000.0,034.2,027.8,023.5,0000.0,0015.66,0004.49,0003.13
2024-05-20 09:53:00,SystemResetWarning,0828.4,5.00,000.00,026.0,025.3,000.0,034.3,027.8,023.4,0000.0,0014.87,0004.55,0003.13
2024-05-20 09:54:00,SystemResetWarning,0828.4,5.00,000.00,026.0,025.3,000.0,034.3,027.9,023.4,0000.0,0015.78,0004.54,0003.13
2024-05-20 09:55:00,SystemResetWarning,0828.4,5.00,000.00,026.0,025.4,000.0,034.3,027.9,023.4,0000.0,0015.61,0004.47,0003.13
2024-05-20 09:56:00,SystemResetWarning,0828.4,5.00,000.00,026.0,025.4,000.0,034.3,027.9,023.3,0000.0,0015.65,0004.44,0003.11
2024-05-20 09:57:00,SystemResetWarning,0828.4,5.00,000.00,026.1,025.4,000.0,034.3,027.9,023.3,0000.0,0015.71,0004.45,0003.09
2024-05-20 09:58:00,SystemResetWarning,0828.4,5.00,000.00,026.1,025.4,000.0,034.3,027.9,023.3,0000.0,0015.62,0004.46,0003.08
2024-05-20 09:59:00,SystemResetWarning,0828.3,5.00,000.00,026.1,025.1,000.0,034.3,027.6,023.3,0000.0,0016.87,0004.39,0003.05
